Weather History for Mount Ida, AR

Change the Weather History Date:

Thursday, September 27, 2012

  Actual Average (KHOT) Record (KHOT)
Temperature  
Mean Temperature 75 °F -  
Max Temperature 84 °F 81 °F 100 °F (1953)
Min Temperature 66 °F 56 °F 42 °F (1985)
Cooling Degree Days 10    
Growing Degree Days 25 (Base 50)    
Moisture  
Dew Point 66 °F    
Average Humidity 76    
Maximum Humidity 96    
Minimum Humidity 55    
Precipitation  
Precipitation 0.00 in - - ()
Sea Level Pressure  
Sea Level Pressure 30.05 in    
Wind  
Wind Speed 1 mph (North)    
Max Wind Speed 7 mph    
Max Gust Speed -    
Visibility 10 miles    
Events      
Averages and records for this station are not official NWS values.
T = Trace of Precipitation, MM = Missing Value Source: NWS Daily Summary

Daily Weather History Graph

Daily Weather History Graph

Search for Another Location

Airport:

Trip Planner

Search our weather history database for the weather conditions in past years. The results will help you decide how hot, cold, wet, or windy it might be!

Date:

Astronomy

Sep. 27, 2012 Rise Set
Actual Time 7:06 AM CDT 7:03 PM CDT
Civil Twilight 6:41 AM CDT 7:28 PM CDT
Nautical Twilight 6:12 AM CDT 7:57 PM CDT
Astronomical Twilight 5:42 AM CDT 8:26 PM CDT
Moon 5:32 PM CDT (9/27) 4:40 AM CDT (9/27)
Length of Visible Light 12h 47m
Length of Day
11h 56m
Waxing Gibbous, 94% of the Moon is Illuminated
Sep 27
Waxing Gibbous
Sep 29
Full
Oct 8
Last Quarter
Oct 15
New
Oct 21
First Quarter

Hourly Weather History & Observations

Time (CDT) Temp. Heat Index Dew Point Humidity Pressure Visibility Wind Dir Wind Speed Gust Speed Precip Events Conditions
12:53 AM 77.0 °F - 63.0 °F 62% 30.01 in 10.0 mi Variable 3.5 mph - N/A   Clear
1:53 AM 73.9 °F - 63.0 °F 68% 30.02 in 10.0 mi Calm Calm - N/A   Clear
2:53 AM 75.0 °F - 62.1 °F 64% 30.02 in 10.0 mi Variable 4.6 mph - N/A   Clear
3:53 AM 72.0 °F - 63.0 °F 73% 30.01 in 10.0 mi Calm Calm - N/A   Clear
4:53 AM 66.9 °F - 64.0 °F 90% 30.04 in 10.0 mi Calm Calm - N/A   Clear
5:53 AM 66.0 °F - 64.0 °F 93% 30.07 in 10.0 mi Calm Calm - N/A   Clear
6:53 AM 66.0 °F - 64.0 °F 93% 30.07 in 9.0 mi Calm Calm - N/A   Clear
7:53 AM 66.9 °F - 64.9 °F 93% 30.08 in 6.0 mi Calm Calm - N/A   Clear
8:53 AM 72.0 °F - 64.9 °F 78% 30.07 in 10.0 mi Calm Calm - N/A   Clear
9:53 AM 77.0 °F - 64.9 °F 66% 30.08 in 10.0 mi Calm Calm - N/A   Clear
10:53 AM 79.0 °F - 66.0 °F 64% 30.07 in 10.0 mi Calm Calm - N/A   Clear
11:53 AM 82.0 °F 85.5 °F 69.1 °F 65% 30.06 in 10.0 mi Calm Calm - N/A   Partly Cloudy
12:53 PM 82.9 °F 85.8 °F 68.0 °F 60% 30.05 in 10.0 mi Variable 5.8 mph - N/A   Partly Cloudy
1:53 PM 84.9 °F 87.6 °F 66.9 °F 55% 30.01 in 10.0 mi Variable 6.9 mph - N/A   Partly Cloudy
2:53 PM 82.0 °F 84.5 °F 66.9 °F 60% 30.00 in 10.0 mi South 3.5 mph - N/A   Clear
3:53 PM 81.0 °F 84.4 °F 70.0 °F 69% 29.99 in 10.0 mi Calm Calm - N/A   Clear
4:53 PM 75.9 °F - 66.9 °F 74% 30.02 in 10.0 mi Calm Calm - N/A   Scattered Clouds
5:53 PM 73.9 °F - 66.9 °F 79% 30.03 in 10.0 mi Calm Calm - N/A   Mostly Cloudy
6:53 PM 72.0 °F - 64.9 °F 78% 30.06 in 10.0 mi Calm Calm - N/A   Mostly Cloudy
7:53 PM 71.1 °F - 64.9 °F 81% 30.08 in 10.0 mi Variable 3.5 mph - N/A   Mostly Cloudy
8:53 PM 70.0 °F - 64.9 °F 84% 30.09 in 10.0 mi Calm Calm - N/A   Scattered Clouds
9:53 PM 69.1 °F - 66.0 °F 90% 30.07 in 10.0 mi Calm Calm - N/A   Clear
10:53 PM 69.1 °F - 66.0 °F 90% 30.05 in 10.0 mi Calm Calm - N/A   Partly Cloudy
11:53 PM 68.0 °F - 66.9 °F 96% 30.04 in 9.0 mi Calm Calm - 0.00 in   Clear